Find Starlink 32502

NORAD ID: 62116 Int'l Des: 2024-222 Owner: SPXS Country: US Constellation: starlink operational
LEOCIRCULAR

Current View

Loading 3D Globe...

About Starlink 32502

Starlink 32502 (NORAD 62116) is a starlink constellation satellite (v2 mini) launched Nov 27, 2024 by SPXS of US. It operates in LEO, CIRCULAR orbit with a mass of 730.00 kg.

Upcoming Passes

Passes for default location (London). Set your location on the main map for personalized predictions.

Altitude History

Loading altitude history...

Two-Line Element Set

1 62116U 24222C 26263.31858822 .00011320 00000-0 42017-3 0 9998
2 62116 43.0071 117.1356 0002953 269.2986 90.7527 15.27584498102576
Epoch: Sep 20, 2026 • Age: 13 hours

Current Status

Altitude 482.7 km
Apogee / Perigee N/A
Velocity 7.63 km/s
Sub-Earth Point 11.48°N, 31.91°W
Launch Date Nov 27, 2024
Age 1.8 years
Type internet

Technical Details

Classification Payload
Mass 730.00 kg
Dry Mass 700.00 kg
Length 0.30 m
Span 29.00 m
Shape ? Box + pan
Manufacturer SPXS
Bus Type Starlink V2M
Phase Status In Orbit
Owner/State SPXS/US

Most Searched